Wind_Speed
20 20 20 20 20 20 20 20 20 20 21 21 21 20 21 21 21 22 22 21 20 20 22 22 22 23 23 23 24 24 24 25 25 25 26 25 25 25
20 20 21 21 21 21 20 20 20 20 21 21 21 21 21 21 20 21 22 21 20 21 21 22 22 23 23 23 24 25 26 26 27 27 27 26 26 26
21 21 21 21 21 21 21 21 21 21 21 22 22 21 21 21 21 21 22 22 22 22 23 23 24 24 24 24 25 25 27 27 27 28 28 28 27 27
22 22 22 22 21 21 20 21 22 21 22 22 22 21 22 22 22 22 22 22 23 23 23 24 24 24 25 26 26 27 27 27 27 28 28 28 27 27
22 22 22 22 22 21 21 22 22 21 21 21 22 22 21 22 22 23 23 23 23 24 24 25 25 25 26 26 27 27 27 27 27 27 27 27 27 27
23 22 22 22 22 22 22 22 22 22 22 22 22 22 22 22 23 23 23 24 24 24 25 25 26 26 26 26 27 26 27 27 27 27 27 27 28 28
24 23 23 22 23 23 22 22 22 22 21 21 22 22 23 23 23 24 24 24 25 24 25 26 27 27 26 27 27 27 27 27 28 27 27 27 28 28
24 24 24 23 23 23 22 22 22 21 22 22 22 23 23 24 24 25 25 25 25 25 25 26 27 28 28 27 28 28 27 27 27 27 27 28 29 29
24 24 24 24 24 23 23 23 22 22 22 23 23 23 24 24 25 25 25 25 25 25 25 25 26 26 27 27 27 27 27 27 26 27 27 28 28 28
25 25 25 25 25 25 25 24 24 23 23 23 24 24 25 25 26 26 26 25 25 25 25 25 26 26 27 27 26 26 27 28 27 26 27 28 28 28
27 27 27 27 27 26 26 25 24 24 25 25 25 26 26 26 26 27 27 26 25 25 26 26 27 27 26 26 26 27 27 28 28 28 27 27 27 28
29 28 28 28 28 27 27 27 26 26 26 26 26 26 26 26 27 27 27 27 27 27 27 27 27 27 26 27 27 27 27 27 27 27 27 26 26 26
30 29 28 28 28 28 28 27 27 27 27 28 27 27 26 26 27 28 28 28 28 28 27 27 26 26 26 27 27 27 27 27 27 26 26 26 26 26
31 30 29 29 29 29 28 28 28 28 28 28 28 27 27 27 27 28 27 27 27 27 27 27 27 27 27 27 27 27 27 27 27 27 26 25 25 26
32 31 31 30 29 29 29 29 29 29 29 29 29 28 28 29 29 28 28 27 26 26 26 27 27 27 27 27 27 27 27 27 27 27 27 26 25 25
31 31 30 29 29 29 30 30 29 29 29 30 30 29 29 29 29 28 27 26 26 25 26 26 27 27 27 27 27 27 27 27 27 27 27 27 27 26
30 30 30 30 30 30 29 29 29 29 29 29 29 29 29 29 27 27 26 26 25 25 25 25 26 26 26 26 25 25 26 26 26 27 27 27 28 28
30 30 30 30 30 30 30 30 30 30 29 29 29 29 29 28 27 28 27 26 25 24 24 25 26 26 25 24 25 25 25 25 25 26 26 26 27 27
30 30 30 30 30 30 30 31 30 29 29 29 28 28 27 26 26 27 27 26 25 25 24 25 25 25 24 23 24 24 25 25 25 25 25 25 26 26
30 29 29 29 29 29 30 30 29 29 29 28 27 26 26 25 25 25 25 26 25 24 24 24 24 24 23 23 23 23 23 23 23 23 24 24 25 25
29 29 29 29 30 30 29 29 30 29 28 27 27 26 26 25 25 25 25 24 24 24 24 24 24 23 23 23 22 22 22 22 22 22 23 23 24 24
29 29 29 30 30 29 30 30 29 28 27 27 27 27 26 26 25 25 25 24 24 24 24 23 23 23 23 22 22 22 21 21 22 22 23 23 23 23
28 28 28 28 28 28 28 28 28 27 27 27 27 26 26 26 26 26 25 25 25 24 24 24 23 22 22 22 22 22 22 22 22 22 22 22 22 22
Wind_Direction
297 295 293 292 291 289 287 285 285 284 282 281 280 280 279 278 278 275 275 273 271 273 273 271 268 267 264 265 266 267 268 269 269 271 271 271 271 271
295 293 293 292 291 289 286 285 284 282 281 281 282 281 279 277 278 278 277 275 274 273 273 273 271 269 264 263 265 268 268 268 269 270 269 268 269 270
297 294 293 293 292 290 287 285 283 280 280 282 282 280 279 278 277 279 278 276 274 274 273 274 273 272 268 266 266 267 269 269 269 269 267 266 268 269
298 297 294 293 291 290 289 286 283 282 281 283 283 279 278 278 278 279 279 278 277 275 274 274 274 274 272 269 268 267 268 270 270 269 269 269 268 268
295 296 295 292 291 290 291 288 286 284 282 282 282 280 278 277 278 279 280 280 280 278 275 274 273 273 272 271 269 269 268 269 269 270 271 271 269 267
293 295 295 293 291 289 290 289 286 283 282 280 280 279 277 277 279 279 281 282 281 281 278 275 274 273 272 271 270 271 271 269 269 270 271 270 269 268
292 293 292 292 291 289 289 287 286 284 282 281 279 278 278 278 279 280 281 284 284 283 281 278 276 276 275 273 272 271 271 270 270 270 271 270 269 269
292 290 290 290 290 289 287 286 286 285 283 281 280 280 280 280 280 280 280 282 285 284 283 281 278 278 277 276 274 273 272 271 270 268 269 269 269 270
291 290 289 288 289 287 286 286 286 286 284 281 281 280 280 280 281 282 281 283 284 285 284 283 282 279 277 275 275 274 273 272 270 269 270 270 269 269
289 290 289 287 287 286 285 285 284 284 284 284 282 282 281 281 280 281 282 283 284 284 284 283 283 282 281 278 277 276 274 274 273 269 269 269 270 269
286 287 289 286 286 285 284 284 284 282 282 285 286 282 279 280 281 282 283 283 284 283 282 283 283 282 281 279 278 278 277 275 275 273 272 270 269 269
286 286 286 285 285 284 284 284 284 282 282 283 285 285 281 280 281 282 284 284 283 282 281 281 280 279 278 278 277 277 277 276 275 275 274 272 272 271
286 284 283 284 283 283 283 284 284 284 284 285 286 285 282 282 283 282 284 285 283 283 282 280 278 277 277 277 277 275 275 275 273 273 274 272 272 274
285 283 282 282 281 281 283 283 285 285 285 285 285 284 284 285 285 285 286 287 285 284 283 280 278 277 278 278 277 275 275 274 273 272 272 271 270 272
283 282 281 280 281 282 283 283 284 284 284 284 284 285 285 285 287 288 288 287 286 285 282 280 278 277 278 278 277 276 275 273 272 270 269 269 269 270
283 281 280 280 281 282 283 283 282 282 282 283 284 284 285 286 287 286 286 286 286 285 284 281 279 278 278 278 278 277 275 274 271 269 268 268 268 268
284 283 282 282 281 282 282 282 282 282 283 283 284 283 283 285 286 285 286 286 286 285 284 283 282 280 279 277 276 276 275 274 271 270 268 269 269 269
283 282 281 281 281 281 280 280 281 282 282 282 283 282 282 282 282 285 288 288 286 285 285 285 282 281 279 277 276 276 275 273 272 271 268 268 268 268
282 281 279 279 280 280 280 281 281 280 281 283 282 281 281 281 282 284 286 287 287 286 286 285 284 283 281 279 276 275 274 271 271 271 269 267 268 269
282 280 279 279 280 281 281 280 279 280 281 281 281 280 279 280 281 283 284 286 286 286 285 285 285 283 282 280 278 276 274 272 273 273 272 269 269 270
281 280 279 279 280 281 280 279 278 279 279 280 279 278 278 279 280 281 282 284 286 285 285 284 284 284 283 280 278 279 276 274 273 274 274 271 269 268
279 278 278 278 278 278 278 278 278 278 279 279 279 277 276 276 277 279 280 283 286 286 285 284 284 284 283 282 281 280 278 277 277 278 276 273 272 270
279 280 279 279 279 279 280 280 279 279 279 279 280 279 276 275 274 276 278 280 283 285 284 282 281 282 282 282 281 280 279 279 280 280 278 275 273 274
Height
5864 5862 5860 5858 5857 5855 5853 5852 5851 5849 5848 5847 5846 5845 5844 5843 5842 5842 5841 5841 5841 5841 5841 5841 5841 5841 5841 5841 5841 5842 5842 5842 5842 5842 5843 5843 5843 5843
5859 5857 5855 5853 5852 5850 5848 5847 5845 5844 5843 5841 5840 5839 5838 5838 5837 5836 5836 5835 5835 5835 5835 5835 5835 5835 5834 5835 5835 5835 5835 5835 5835 5836 5836 5836 5836 5836
5854 5852 5849 5847 5846 5844 5842 5841 5840 5838 5837 5836 5835 5834 5833 5832 5832 5831 5830 5829 5829 5829 5829 5829 5829 5828 5828 5828 5828 5828 5828 5828 5828 5828 5828 5828 5828 5829
5849 5846 5844 5842 5840 5838 5836 5835 5834 5833 5832 5830 5829 5828 5828 5827 5826 5826 5825 5824 5823 5823 5822 5822 5822 5821 5821 5821 5821 5821 5821 5821 5821 5821 5821 5821 5821 5821
5843 5841 5838 5836 5834 5832 5831 5829 5828 5827 5826 5825 5824 5822 5822 5821 5820 5820 5819 5818 5817 5816 5816 5815 5815 5814 5814 5814 5813 5813 5813 5813 5813 5813 5813 5813 5813 5813
5837 5835 5833 5830 5828 5826 5825 5823 5822 5821 5820 5819 5818 5817 5816 5815 5814 5813 5813 5812 5810 5809 5808 5808 5807 5807 5806 5806 5806 5806 5806 5806 5806 5806 5805 5805 5805 5805
5831 5829 5827 5825 5823 5821 5819 5817 5816 5815 5814 5812 5812 5811 5810 5809 5808 5807 5806 5805 5803 5802 5801 5800 5800 5799 5798 5798 5798 5798 5798 5798 5798 5798 5798 5798 5797 5797
5825 5823 5821 5819 5817 5815 5813 5811 5810 5809 5808 5806 5805 5804 5803 5802 5801 5800 5799 5798 5797 5796 5794 5793 5792 5791 5790 5790 5790 5790 5790 5790 5790 5790 5790 5790 5789 5789
5818 5816 5814 5812 5810 5808 5807 5805 5804 5802 5801 5800 5799 5798 5797 5796 5795 5793 5792 5791 5789 5788 5786 5785 5784 5783 5783 5782 5782 5782 5782 5781 5781 5781 5781 5781 5781 5781
5811 5809 5807 5805 5803 5802 5800 5799 5797 5796 5795 5793 5792 5791 5790 5789 5788 5786 5785 5783 5782 5780 5779 5778 5776 5775 5774 5774 5774 5774 5773 5773 5773 5773 5773 5773 5773 5772
5803 5801 5799 5798 5796 5794 5793 5792 5790 5789 5787 5786 5785 5783 5782 5781 5780 5779 5777 5775 5774 5772 5771 5769 5768 5767 5766 5766 5765 5766 5765 5765 5765 5765 5765 5764 5764 5764
5795 5793 5791 5790 5788 5786 5785 5784 5783 5781 5780 5778 5777 5775 5774 5773 5771 5770 5769 5767 5766 5764 5762 5761 5759 5758 5758 5757 5757 5757 5757 5757 5757 5757 5756 5756 5756 5755
5786 5784 5783 5782 5780 5778 5777 5776 5774 5773 5771 5770 5768 5767 5765 5764 5763 5762 5760 5759 5757 5755 5753 5752 5751 5750 5749 5749 5748 5748 5748 5748 5748 5748 5748 5748 5748 5747
5777 5776 5775 5773 5772 5770 5769 5768 5766 5765 5763 5762 5760 5758 5757 5756 5755 5753 5752 5750 5748 5746 5745 5743 5742 5742 5741 5740 5740 5739 5739 5739 5739 5739 5740 5740 5740 5740
5767 5766 5765 5764 5763 5762 5760 5759 5757 5756 5755 5753 5752 5750 5749 5747 5746 5745 5743 5741 5739 5738 5736 5735 5734 5733 5732 5732 5731 5731 5730 5730 5730 5730 5731 5731 5731 5732
5758 5756 5755 5754 5753 5752 5751 5750 5749 5748 5746 5745 5744 5742 5740 5739 5738 5737 5735 5733 5731 5730 5728 5726 5725 5725 5724 5723 5722 5722 5722 5722 5722 5722 5722 5722 5723 5723
5749 5747 5746 5745 5744 5743 5742 5741 5740 5739 5737 5736 5735 5734 5732 5731 5730 5728 5727 5725 5724 5722 5721 5719 5717 5716 5715 5715 5714 5714 5713 5713 5713 5713 5713 5714 5714 5714
5740 5739 5737 5736 5735 5734 5733 5732 5731 5729 5729 5727 5726 5725 5724 5723 5721 5720 5719 5717 5715 5714 5712 5711 5710 5708 5707 5707 5706 5705 5705 5705 5705 5704 5704 5704 5705 5705
5731 5729 5728 5727 5726 5725 5724 5723 5722 5720 5719 5718 5717 5716 5715 5714 5713 5712 5710 5709 5707 5706 5704 5703 5702 5701 5700 5699 5699 5698 5697 5697 5697 5696 5696 5696 5696 5697
5721 5720 5719 5718 5717 5716 5715 5713 5712 5711 5710 5709 5708 5707 5706 5705 5705 5704 5702 5701 5699 5698 5697 5696 5694 5693 5692 5691 5691 5690 5690 5689 5689 5689 5689 5688 5688 5688
5712 5711 5710 5709 5708 5707 5705 5704 5703 5702 5701 5700 5699 5699 5698 5697 5696 5695 5694 5693 5692 5691 5690 5689 5687 5686 5685 5684 5684 5683 5683 5682 5682 5681 5681 5681 5680 5680
5703 5702 5701 5700 5698 5697 5696 5695 5693 5693 5692 5691 5690 5689 5689 5688 5688 5687 5687 5686 5684 5683 5682 5681 5680 5679 5678 5677 5676 5676 5675 5675 5674 5674 5673 5673 5672 5673
5693 5692 5691 5690 5689 5688 5686 5685 5684 5683 5683 5682 5681 5681 5680 5680 5679 5679 5679 5678 5677 5676 5675 5674 5673 5672 5671 5670 5669 5668 5668 5668 5667 5666 5666 5666 5665 5665